EW8543 Weather Reports


Display with metric or nautical units.
time (UTC)temp
F
wind
direction
speed
MPH
gust
MPH
rain 1hr
in
rain 24hr
in
rain mn
in
humidity
%
barometer
mb
20260507062524 51 30 2.0 5.0 0.00 0.00 0.00 78 1015.9
20260507062029 51 44 2.0 5.0 0.00 0.00 0.00 78 1015.9
20260507061537 51 59 2.0 5.0 0.00 0.00 0.00 78 1016.0
20260507061044 51 85 1.0 4.0 0.00 0.00 0.00 78 1015.9
20260507060532 50 101 1.0 4.0 0.00 0.00 0.00 79 1015.9
20260507060035 50 47 1.0 5.0 0.00 0.00 0.00 80 1016.0
20260507055540 50 59 2.0 5.0 0.00 0.00 0.00 80 1015.9
20260507055029 49 34 1.0 2.0 0.00 0.00 0.00 81 1015.9
20260507054538 49 34 0.0 3.0 0.00 0.00 0.00 82 1015.8
20260507054047 48 34 1.0 3.0 0.00 0.00 0.00 82 1015.7
20260507053530 48 34 0.0 2.0 0.00 0.00 0.00 82 1015.7
20260507053039 48 34 0.0 2.0 0.00 0.00 0.00 82 1015.6
20260507052528 48 34 0.0 3.0 0.00 0.00 0.00 83 1015.6
20260507052037 48 36 1.0 3.0 0.00 0.00 0.00 84 1015.6
20260507051526 48 24 0.0 2.0 0.00 0.00 0.00 84 1015.6
20260507051030 48 24 1.0 2.0 0.00 0.00 0.00 85 1015.5
20260507050539 47 24 0.0 2.0 0.00 0.00 0.00 87 1015.5
20260507050040 46 22 0.0 3.0 0.00 0.00 0.00 89 1015.4
20260507045528 45 22 0.0 2.0 0.00 0.00 0.00 88 1015.3
20260507045036 45 22 0.0 2.0 0.00 0.00 0.00 88 1015.3
20260507044541 45 22 0.0 1.0 0.00 0.00 0.00 88 1015.2
20260507044029 44 22 0.0 2.0 0.00 0.00 0.00 88 1015.2
20260507043538 44 22 1.0 2.0 0.00 0.00 0.00 88 1015.1
20260507043027 44 22 0.0 2.0 0.00 0.00 0.00 88 1015.1
20260507042556 44 22 0.0 1.0 0.00 0.00 0.00 88 1015.1
20260507042039 45 22 0.0 1.0 0.00 0.00 0.00 88 1015.1
20260507041528 45 22 0.0 1.0 0.00 0.00 0.00 88 1015.0
20260507041100 45 22 0.0 2.0 0.00 0.00 0.00 87 1015.0
20260507040528 45 22 0.0 2.0 0.00 0.00 0.00 87 1014.9
20260507040027 45 22 0.0 3.0 0.00 0.00 0.00 87 1014.9
20260507035536 45 22 0.0 3.0 0.00 0.00 0.00 88 1014.8
20260507035025 45 22 0.0 2.0 0.00 0.00 0.00 88 1014.9
20260507034534 45 22 1.0 3.0 0.00 0.00 0.00 87 1014.9
20260507034041 45 30 1.0 3.0 0.00 0.00 0.00 88 1014.8
20260507033526 45 26 1.0 3.0 0.00 0.00 0.00 87 1014.8
20260507033035 45 32 1.0 3.0 0.00 0.00 0.00 88 1014.8
20260507032524 45 32 1.0 3.0 0.00 0.00 0.00 87 1014.8
20260507032033 45 45 1.0 2.0 0.00 0.00 0.00 87 1014.8
20260507031542 45 45 1.0 2.0 0.00 0.00 0.00 87 1014.7
20260507031027 46 45 0.0 3.0 0.00 0.00 0.00 87 1014.7
20260507030536 46 45 1.0 3.0 0.00 0.00 0.00 87 1014.7
20260507030056 46 45 0.0 3.0 0.00 0.00 0.00 87 1014.6
20260507025543 46 45 1.0 3.0 0.00 0.00 0.00 87 1014.6
20260507025031 46 45 1.0 3.0 0.00 0.00 0.00 86 1014.6
20260507024536 46 45 1.0 3.0 0.00 0.00 0.00 86 1014.6
20260507024024 46 45 1.0 4.0 0.00 0.00 0.00 86 1014.5
20260507023533 46 45 1.0 4.0 0.00 0.00 0.00 86 1014.5
20260507023041 46 32 2.0 3.0 0.00 0.00 0.00 86 1014.5
20260507022530 46 32 1.0 3.0 0.00 0.00 0.00 86 1014.5
20260507022034 46 32 1.0 5.0 0.00 0.00 0.00 86 1014.5
20260507021543 46 342 2.0 5.0 0.00 0.00 0.00 85 1014.4
20260507021032 46 29 1.0 5.0 0.00 0.00 0.00 85 1014.3
20260507020542 46 38 2.0 5.0 0.00 0.00 0.00 86 1014.3
20260507020024 46 5 1.0 2.0 0.00 0.00 0.00 86 1014.3
20260507015550 47 5 1.0 4.0 0.00 0.00 0.00 85 1014.3
20260507015035 47 5 2.0 4.0 0.00 0.00 0.00 85 1014.3
20260507014524 47 19 1.0 4.0 0.00 0.00 0.00 85 1014.2
20260507014032 47 19 2.0 4.0 0.00 0.00 0.00 85 1014.2
20260507013557 47 25 1.0 4.0 0.00 0.00 0.00 85 1014.2
20260507013024 47 10 2.0 5.0 0.00 0.00 0.00 85 1014.1
20260507012533 47 327 1.0 5.0 0.00 0.00 0.00 85 1014.1
20260507012041 47 32 2.0 5.0 0.00 0.00 0.00 85 1014.1
20260507011529 47 9 2.0 5.0 0.00 0.00 0.00 85 1014.1
20260507011034 47 36 2.0 5.0 0.00 0.00 0.00 85 1014.1
20260507010542 47 340 2.0 5.0 0.00 0.00 0.00 85 1014.1
20260507010042 47 21 2.0 5.0 0.00 0.00 0.00 85 1014.1
20260507005530 47 5 3.0 5.0 0.00 0.00 0.00 85 1014.1
20260507005034 47 5 2.0 5.0 0.00 0.00 0.00 85 1014.1
20260507004524 48 61 2.0 6.0 0.00 0.00 0.00 85 1014.1
20260507004031 47 14 3.0 6.0 0.00 0.00 0.00 85 1014.0
20260507003539 48 336 1.0 5.0 0.00 0.00 0.00 85 1014.0
20260507003026 48 13 1.0 5.0 0.00 0.00 0.00 85 1014.1
20260507002528 48 13 2.0 5.0 0.00 0.00 0.00 85 1014.0
20260507002100 48 15 2.0 5.0 0.00 0.00 0.00 85 1014.0
20260507001547 48 350 1.0 6.0 0.00 0.00 0.00 85 1013.9
20260507001032 48 355 2.0 6.0 0.00 0.00 0.00 85 1013.9
20260507000537 48 25 2.0 6.0 0.00 0.00 0.00 85 1013.9
20260507000056 48 16 2.0 6.0 0.00 0.00 0.00 85 1013.9
20260506235542 48 14 2.0 5.0 0.00 0.00 0.00 85 1013.8
20260506235033 49 355 1.0 9.0 0.00 0.00 0.00 85 1013.9
20260506234540 49 360 3.0 9.0 0.00 0.00 0.00 84 1013.9
20260506234043 49 355 2.0 8.0 0.00 0.00 0.00 84 1013.9
20260506233531 49 30 2.0 8.0 0.00 0.00 0.00 83 1013.8
20260506233040 49 22 2.0 8.0 0.00 0.00 0.00 83 1013.8
20260506232527 49 23 3.0 8.0 0.00 0.00 0.00 83 1013.7
20260506232032 49 17 4.0 10.0 0.00 0.00 0.00 82 1013.7
20260506231555 49 41 3.0 10.0 0.00 0.00 0.00 82 1013.7
20260506231041 49 30 2.0 10.0 0.00 0.00 0.00 81 1013.7
20260506230527 50 34 4.0 10.0 0.00 0.00 0.00 81 1013.7
20260506230025 50 17 3.0 9.0 0.00 0.00 0.00 80 1013.7
20260506225528 50 30 2.0 8.0 0.00 0.00 0.00 79 1013.7
20260506225055 50 28 3.0 8.0 0.00 0.00 0.00 79 1013.6
20260506224523 50 11 3.0 8.0 0.00 0.00 0.00 79 1013.7
20260506224031 50 324 2.0 8.0 0.00 0.00 0.00 78 1013.7
20260506223536 50 9 2.0 10.0 0.00 0.00 0.00 78 1013.6
20260506223043 50 14 4.0 10.0 0.00 0.00 0.00 77 1013.5
20260506222532 50 15 3.0 6.0 0.00 0.00 0.00 77 1013.5
20260506222039 50 331 2.0 5.0 0.00 0.00 0.00 77 1013.4
20260506221525 50 351 2.0 5.0 0.00 0.00 0.00 76 1013.4
20260506221029 51 19 1.0 6.0 0.00 0.00 0.00 75 1013.4
20260506220536 51 11 2.0 6.0 0.00 0.00 0.00 75 1013.4
20260506220038 51 13 2.0 6.0 0.00 0.00 0.00 75 1013.4
20260506215524 51 5 2.0 8.0 0.00 0.00 0.00 74 1013.3
20260506215052 51 13 3.0 8.0 0.00 0.00 0.00 74 1013.3
20260506214556 51 11 2.0 6.0 0.00 0.00 0.00 74 1013.3
20260506214023 51 322 2.0 10.0 0.00 0.00 0.00 73 1013.3
20260506213531 51 341 4.0 10.0 0.00 0.00 0.00 73 1013.2
20260506213037 51 318 3.0 5.0 0.00 0.00 0.00 72 1013.2
20260506212541 52 347 2.0 6.0 0.00 0.00 0.00 72 1013.1
20260506212029 52 5 3.0 6.0 0.00 0.00 0.00 71 1013.1
20260506211538 52 355 2.0 6.0 0.00 0.00 0.00 71 1013.0
20260506211027 52 9 2.0 6.0 0.00 0.00 0.00 71 1012.9
20260506210541 52 5 1.0 7.0 0.00 0.00 0.00 70 1013.0
20260506210023 52 58 3.0 8.0 0.00 0.00 0.00 70 1012.9
20260506205532 53 325 2.0 6.0 0.00 0.00 0.00 70 1012.9
20260506205040 53 5 3.0 6.0 0.00 0.00 0.00 69 1012.9
20260506204529 53 40 2.0 6.0 0.00 0.00 0.00 68 1012.9
20260506204037 53 15 2.0 8.0 0.00 0.00 0.00 68 1012.9
20260506203542 54 40 3.0 8.0 0.00 0.00 0.00 67 1012.8
20260506203031 54 360 3.0 10.0 0.00 0.00 0.00 67 1012.8
20260506202540 54 15 3.0 10.0 0.00 0.00 0.00 67 1012.7
20260506202027 54 335 3.0 10.0 0.00 0.00 0.00 67 1012.6
20260506201536 54 341 3.0 9.0 0.00 0.00 0.00 67 1012.6
20260506201040 55 341 3.0 9.0 0.00 0.00 0.00 69 1012.6
20260506200529 55 34 2.0 6.0 0.00 0.00 0.00 70 1012.5
20260506200028 55 9 3.0 6.0 0.00 0.00 0.00 70 1012.5
20260506195536 55 17 2.0 8.0 0.00 0.00 0.00 70 1012.4
20260506195025 55 355 2.0 8.0 0.00 0.00 0.00 70 1012.3
20260506194549 55 344 3.0 8.0 0.00 0.00 0.00 72 1012.2
20260506194037 55 17 3.0 8.0 0.00 0.00 0.00 73 1012.2
20260506193527 55 32 2.0 8.0 0.00 0.00 0.00 73 1012.2
20260506193036 55 355 4.0 9.0 0.00 0.00 0.00 72 1012.2
20260506192525 55 350 4.0 9.0 0.00 0.00 0.00 73 1012.1
20260506192027 55 346 5.0 10.0 0.00 0.00 0.00 72 1012.0
20260506191536 55 346 5.0 10.0 0.00 0.00 0.00 72 1011.9
20260506191024 55 17 2.0 11.0 0.00 0.00 0.00 73 1011.9
20260506190533 55 298 4.0 11.0 0.00 0.00 0.00 73 1011.9
20260506190030 55 336 5.0 13.0 0.00 0.00 0.00 73 1011.8
20260506185540 55 355 4.0 13.0 0.00 0.00 0.00 73 1011.7
20260506185028 55 15 5.0 11.0 0.00 0.00 0.00 73 1011.6
20260506184558 55 19 4.0 11.0 0.00 0.00 0.00 73 1011.6
20260506184044 55 5 4.0 13.0 0.00 0.00 0.00 73 1011.5
20260506183548 55 25 5.0 13.0 0.00 0.00 0.00 74 1011.5
20260506183035 55 28 3.0 12.0 0.00 0.00 0.00 74 1011.4
20260506182524 55 23 4.0 14.0 0.00 0.00 0.00 74 1011.3
20260506182032 55 9 8.0 14.0 0.00 0.00 0.00 74 1011.2
20260506181538 55 355 7.0 12.0 0.00 0.00 0.00 74 1011.2
20260506181025 55 11 4.0 11.0 0.00 0.00 0.00 75 1011.1
20260506180535 55 351 6.0 12.0 0.00 0.00 0.00 75 1011.1
20260506180036 55 5 6.0 13.0 0.00 0.00 0.00 74 1011.1
20260506175525 55 13 5.0 13.0 0.00 0.00 0.00 74 1011.1
20260506175029 55 9 7.0 13.0 0.00 0.00 0.00 74 1011.0
20260506174538 55 9 7.0 15.0 0.00 0.00 0.00 74 1010.9
20260506174026 55 15 7.0 15.0 0.00 0.00 0.00 74 1010.8
20260506173535 55 344 7.0 14.0 0.00 0.00 0.00 75 1010.8
20260506173058 55 29 6.0 15.0 0.00 0.00 0.00 75 1010.8
20260506172527 55 16 6.0 17.0 0.00 0.00 0.00 75 1010.7
20260506172037 55 328 7.0 17.0 0.00 0.00 0.00 74 1010.7
20260506171525 55 317 5.0 14.0 0.00 0.00 0.00 75 1010.6
20260506171054 55 342 8.0 14.0 0.00 0.00 0.00 75 1010.6
20260506170538 55 333 9.0 13.0 0.00 0.00 0.00 75 1010.6
20260506170058 55 355 6.0 15.0 0.00 0.00 0.00 75 1010.5
20260506165545 55 9 8.0 15.0 0.00 0.00 0.00 75 1010.5
20260506165031 55 347 8.0 14.0 0.00 0.00 0.00 75 1010.5
20260506164534 55 5 6.0 15.0 0.00 0.00 0.00 75 1010.6
20260506164023 55 5 6.0 16.0 0.00 0.00 0.00 75 1010.5
20260506163552 55 360 9.0 16.0 0.00 0.00 0.00 75 1010.5
20260506163038 55 355 8.0 13.0 0.00 0.00 0.00 75 1010.5
20260506162527 55 24 7.0 15.0 0.00 0.00 0.00 75 1010.4
20260506162028 55 355 8.0 15.0 0.00 0.00 0.00 75 1010.5
20260506161537 55 331 7.0 14.0 0.00 0.00 0.00 75 1010.4
20260506161026 56 360 6.0 15.0 0.00 0.00 0.00 74 1010.4
20260506160536 56 338 6.0 15.0 0.00 0.00 0.00 73 1010.5
20260506160034 56 54 6.0 13.0 0.00 0.00 0.00 73 1010.4
20260506155542 56 346 7.0 17.0 0.00 0.00 0.00 73 1010.3
20260506155049 56 355 10.0 19.0 0.00 0.00 0.00 72 1010.4
20260506154537 56 22 5.0 19.0 0.00 0.00 0.00 72 1010.4
20260506154022 56 34 7.0 18.0 0.00 0.00 0.00 72 1010.4
20260506153546 56 29 9.0 20.0 0.00 0.00 0.00 72 1010.4
20260506153034 56 339 11.0 20.0 0.00 0.00 0.00 71 1010.4
20260506152522 57 12 12.0 20.0 0.00 0.00 0.00 70 1010.3
20260506152030 57 355 9.0 20.0 0.00 0.00 0.00 71 1010.3
20260506151534 57 5 10.0 21.0 0.00 0.00 0.00 71 1010.3
20260506151022 56 33 11.0 21.0 0.00 0.00 0.00 70 1010.3
20260506150532 57 360 7.0 22.0 0.00 0.00 0.00 70 1010.3
20260506150054 57 5 12.0 22.0 0.00 0.00 0.00 70 1010.2
20260506145540 58 11 12.0 20.0 0.00 0.00 0.00 68 1010.2
20260506145025 57 19 10.0 16.0 0.00 0.00 0.00 70 1010.1
20260506144534 57 303 8.0 18.0 0.00 0.00 0.00 70 1010.2
20260506144024 58 324 9.0 18.0 0.00 0.00 0.00 68 1010.2
20260506143559 58 329 9.0 19.0 0.00 0.00 0.00 68 1010.2
20260506143027 57 13 12.0 19.0 0.00 0.00 0.00 70 1010.2
20260506142532 58 12 8.0 17.0 0.00 0.00 0.00 69 1010.3
20260506142039 59 337 7.0 18.0 0.00 0.00 0.00 68 1010.3
20260506141526 60 340 10.0 18.0 0.00 0.00 0.00 69 1010.3
20260506141029 59 342 8.0 17.0 0.00 0.00 0.00 70 1010.1
20260506140534 59 15 9.0 19.0 0.00 0.00 0.00 71 1010.3
20260506140057 58 350 11.0 19.0 0.00 0.00 0.00 71 1010.3
20260506135525 59 25 10.0 19.0 0.00 0.00 0.00 71 1010.2
20260506135034 59 355 12.0 21.0 0.00 0.00 0.00 71 1010.3
20260506134543 59 11 10.0 21.0 0.00 0.00 0.00 71 1010.2
20260506134026 59 348 10.0 17.0 0.00 0.00 0.00 71 1010.2
20260506133535 59 21 9.0 16.0 0.00 0.00 0.00 72 1010.2
20260506133022 58 332 6.0 18.0 0.00 0.00 0.00 73 1010.2
20260506132531 57 14 12.0 18.0 0.00 0.00 0.00 75 1010.2
20260506132059 56 45 8.0 17.0 0.00 0.00 0.00 75 1010.2
20260506131528 56 346 10.0 17.0 0.00 0.00 0.00 74 1010.2
20260506131101 57 360 8.0 15.0 0.00 0.00 0.00 73 1010.1
20260506130530 58 296 7.0 16.0 0.00 0.00 0.00 73 1010.2
20260506130032 58 302 8.0 19.0 0.00 0.00 0.00 73 1010.1
20260506125538 58 22 9.0 19.0 0.00 0.00 0.00 73 1010.0
20260506125027 58 346 8.0 18.0 0.00 0.00 0.00 73 1010.1
20260506124556 58 14 9.0 18.0 0.00 0.00 0.00 72 1010.0
20260506124022 58 5 8.0 17.0 0.00 0.00 0.00 74 1010.0
20260506123528 57 284 8.0 17.0 0.00 0.00 0.00 75 1010.0
20260506123056 57 355 9.0 17.0 0.00 0.00 0.00 74 1009.9
20260506122525 57 5 10.0 17.0 0.00 0.00 0.00 75 1010.0
20260506122031 57 355 9.0 18.0 0.00 0.00 0.00 74 1010.0
20260506121540 57 317 7.0 18.0 0.00 0.00 0.00 74 1010.0
20260506121026 57 351 9.0 17.0 0.00 0.00 0.00 73 1010.0
20260506120555 56 333 10.0 17.0 0.00 0.00 0.00 73 1009.9
20260506120036 57 355 9.0 15.0 0.00 0.00 0.00 73 1009.9
20260506115524 56 48 9.0 15.0 0.00 0.00 0.00 73 1009.9
20260506115029 56 355 10.0 17.0 0.00 0.00 0.00 72 1009.8
20260506114538 57 360 10.0 17.0 0.00 0.00 0.00 72 1009.9
20260506114025 56 341 7.0 16.0 0.00 0.00 0.00 73 1009.9
20260506113533 56 333 8.0 16.0 0.00 0.00 0.00 73 1009.8
20260506113041 57 355 7.0 16.0 0.00 0.00 0.00 72 1009.9
20260506112526 58 355 9.0 16.0 0.00 0.00 0.00 70 1009.8
20260506112054 58 355 9.0 18.0 0.00 0.00 0.00 71 1009.9
20260506111521 58 11 10.0 18.0 0.00 0.00 0.00 72 1009.8
20260506111031 57 355 5.0 17.0 0.00 0.00 0.00 74 1009.8
20260506110540 57 300 11.0 20.0 0.00 0.00 0.00 73 1009.9
20260506110037 57 38 11.0 20.0 0.00 0.00 0.00 74 1009.8
20260506105527 57 346 6.0 17.0 0.00 0.00 0.00 75 1009.9
20260506105034 57 325 9.0 18.0 0.00 0.00 0.00 74 1009.9
20260506104523 57 20 11.0 18.0 0.00 0.00 0.00 74 1009.9
20260506104030 57 15 10.0 19.0 0.00 0.00 0.00 73 1009.8
20260506103559 58 332 10.0 19.0 0.00 0.00 0.00 74 1009.8
20260506103048 58 5 8.0 15.0 0.00 0.00 0.00 74 1009.8
20260506102556 57 290 9.0 19.0 0.00 0.00 0.00 74 1009.8
20260506102023 57 309 11.0 19.0 0.00 0.00 0.00 74 1009.7
20260506101527 57 285 9.0 17.0 0.00 0.00 0.00 74 1009.7
20260506101035 57 25 11.0 17.0 0.00 0.00 0.00 73 1009.7
20260506100523 57 355 10.0 17.0 0.00 0.00 0.00 72 1009.7
20260506100025 58 360 7.0 13.0 0.00 0.00 0.00 71 1009.7
20260506095549 58 28 7.0 13.0 0.00 0.00 0.00 71 1009.7
20260506095037 58 28 7.0 18.0 0.00 0.00 0.00 71 1009.7
20260506094525 57 337 8.0 18.0 0.00 0.00 0.00 72 1009.7
20260506094032 57 350 9.0 14.0 0.00 0.00 0.00 72 1009.7
20260506093540 57 321 7.0 14.0 0.00 0.00 0.00 73 1009.7
20260506093024 57 44 7.0 14.0 0.00 0.00 0.00 74 1009.7
20260506092533 56 350 6.0 15.0 0.00 0.00 0.00 76 1009.6
20260506092041 56 348 9.0 17.0 0.00 0.00 0.00 76 1009.6
20260506091529 56 325 9.0 17.0 0.00 0.00 0.00 76 1009.6
20260506091052 56 42 6.0 16.0 0.00 0.00 0.00 77 1009.6
20260506090540 56 329 9.0 16.0 0.00 0.00 0.00 75 1009.6
20260506090041 56 350 5.0 16.0 0.00 0.00 0.00 77 1009.6
20260506085549 56 11 9.0 16.0 0.00 0.00 0.00 76 1009.5
20260506085036 55 30 7.0 15.0 0.00 0.00 0.00 79 1009.5
20260506084540 55 18 10.0 19.0 0.00 0.00 0.00 77 1009.5
20260506084028 56 9 9.0 17.0 0.00 0.00 0.00 77 1009.4
20260506083537 56 344 10.0 17.0 0.00 0.00 0.00 78 1009.3
20260506083025 55 322 6.0 13.0 0.00 0.00 0.00 80 1009.3
20260506082533 55 348 6.0 16.0 0.00 0.00 0.00 81 1009.4
20260506082037 55 5 8.0 16.0 0.00 0.00 0.00 81 1009.4
20260506081525 55 32 9.0 15.0 0.00 0.00 0.00 81 1009.5
20260506081054 55 5 9.0 15.0 0.00 0.00 0.00 82 1009.4
20260506080521 54 360 6.0 16.0 0.00 0.00 0.00 83 1009.4
20260506073028 53 348 7.0 16.0 0.00 0.00 0.00 84 1009.3
20260506072537 53 327 8.0 15.0 0.00 0.00 0.00 84 1009.3
20260506072025 53 34 6.0 16.0 0.00 0.00 0.00 85 1009.2
20260506071531 53 313 10.0 16.0 0.00 0.00 0.00 85 1009.2
20260506071038 52 13 7.0 15.0 0.00 0.00 0.00 85 1009.2
20260506070528 52 13 8.0 18.0 0.00 0.00 0.00 84 1009.2